This is the latest recevied weather packets stored in our database for station/object AJ1L. If no packets are shown the sender has not sent any weather packets the latest 10 day(s).
| Time | Temp. | Humidity | Pressure | Rain* | Wind** | Luminosity | Snow |
|---|---|---|---|---|---|---|---|
| 1778147038 | 10° C | 94% | 1007 hPa | 0.51 mm | - | - | - |
| 1778145039 | 10° C | 93% | 1006.9 hPa | 2.03 mm | - | - | - |
| 1778144038 | 10.56° C | 93% | 1006.7 hPa | 3.05 mm | - | - | - |
| 1778143038 | 11.11° C | 93% | 1006.5 hPa | 5.08 mm | - | - | - |
| 1778142039 | 11.67° C | 93% | 1006.7 hPa | 4.32 mm | - | - | - |
| 1778141038 | 12.22° C | 92% | 1006.7 hPa | 2.79 mm | - | - | - |
| 1778140040 | 12.22° C | 90% | 1006.5 hPa | 1.78 mm | - | - | - |
| 1778139039 | 12.78° C | 91% | 1005.5 hPa | 0 mm | - | - | - |
| 1778138041 | 12.78° C | 94% | 1005.5 hPa | 0 mm | - | - | - |
| 1778137041 | 13.33° C | 95% | 1005.8 hPa | 0 mm | - | - | - |
| 1778136039 | 13.33° C | 95% | 1005.6 hPa | 0 mm | - | - | - |
| 1778135038 | 13.33° C | 95% | 1005.6 hPa | 0 mm | - | - | - |
| 1778134040 | 13.33° C | 95% | 1005.9 hPa | 0 mm | - | - | - |
| 1778133039 | 13.33° C | 95% | 1006 hPa | 0 mm | - | - | - |
| 1778132040 | 13.33° C | 95% | 1006.3 hPa | 0 mm | - | - | - |
| 1778131041 | 13.33° C | 95% | 1006.2 hPa | 0 mm | - | - | - |
| 1778130039 | 13.33° C | 95% | 1006.3 hPa | 0 mm | - | - | - |
| 1778129038 | 13.33° C | 95% | 1006.4 hPa | 0 mm | - | - | - |
| 1778127039 | 13.33° C | 95% | 1006.3 hPa | 0 mm | - | - | - |
| 1778126040 | 13.33° C | 95% | 1006.4 hPa | 0 mm | - | - | - |
| 1778125038 | 13.33° C | 95% | 1006.7 hPa | 0 mm | - | - | - |
| 1778124039 | 12.78° C | 95% | 1006.4 hPa | 0 mm | - | - | - |
| 1778123039 | 12.78° C | 95% | 1006.2 hPa | 0 mm | - | - | - |
| 1778122038 | 12.78° C | 95% | 1006.2 hPa | 0 mm | - | - | - |
| 1778120038 | 12.78° C | 94% | 1006.1 hPa | 0 mm | - | - | - |
* Rain latest hour (hover to see other rain measurements)
** Current wind speed in m/s (hover to see current wind gust speed)